M I D A S
Marine Information and Data Acquisition System
Tripno 947 of the Zeeleeuw from 2005-07-07 06:26:53 to 2005-07-07 13:50:01
Back to CruiseResearch ActivitiesStationsMapUnderway DataData graphs

EquipmentUnitsComments
TimeDGPSUTC
LatitudeDGPSDM.mWGS84
LongitudeDGPSDM.mWGS84
SpeedMeteo Stationm/sRelative wind speed
DirectionMeteo StationdegRelative wind direction
TemperatureMeteo Stationdeg CelciusAir temperature
PressureMeteo StationPaAtmospheric pressure
HumidityMeteo Station%Relative humidity
Missing or incorrect values are displayed as -999
Metereological data collected by the RV Zeeleeuw from 2005-07-07 06:32:39 to 2005-07-07 14:01:09
Time Latitude Longitude Speed Direction Temperature Pressure Humidity
2005-07-07 06:33 51°13.598 2°56.097 2.9 182 14.3 100520 94
2005-07-07 06:34 51°13.57 2°56.157 4.4 141 14.3 100520 93
2005-07-07 06:35 51°13.549 2°56.231 5.3 211 14.3 100510 93
2005-07-07 06:36 51°13.552 2°56.231 10.3 240 14.2 100520 92
2005-07-07 06:37 51°13.545 2°56.209 7.1 261 14.2 100530 92
2005-07-07 06:38 51°13.544 2°56.198 8.5 291 14.1 100530 92
2005-07-07 06:39 51°13.548 2°56.188 8.7 306 14.1 100510 92
2005-07-07 06:40 51°13.545 2°56.192 8.8 354 14.1 100510 93
2005-07-07 06:41 51°13.578 2°56.075 9.9 359 14.1 100500 93
2005-07-07 06:42 51°13.644 2°55.918 9.6 3 14.2 100510 93
2005-07-07 06:43 51°13.723 2°55.754 8.7 354 14.2 100500 93
2005-07-07 06:44 51°13.831 2°55.632 7.9 359 14.3 100490 93
2005-07-07 06:45 51°13.957 2°55.539 9.9 345 14.3 100490 93
2005-07-07 06:46 51°14.089 2°55.447 14.9 336 14.4 100500 93
2005-07-07 06:47 51°14.232 2°55.305 15.1 3 14.4 100480 94
2005-07-07 06:48 51°14.348 2°55.098 17.4 358 14.4 100460 94
2005-07-07 06:49 51°14.485 2°54.895 16.2 348 14.4 100440 93
2005-07-07 06:50 51°14.672 2°54.745 17.9 339 14.5 100430 93
2005-07-07 06:51 51°14.851 2°54.597 15.5 344 14.6 100430 93
2005-07-07 06:52 51°15.029 2°54.449 17 342 14.6 100430 93
2005-07-07 06:53 51°15.211 2°54.291 18.6 345 14.6 100440 94
2005-07-07 06:54 51°15.391 2°54.139 16 344 14.6 100440 94
2005-07-07 06:55 51°15.572 2°53.976 16.9 346 14.6 100440 93
2005-07-07 06:56 51°15.755 2°53.811 17.6 340 14.6 100440 94
2005-07-07 06:57 51°15.935 2°53.648 17.3 340 14.6 100440 94
2005-07-07 06:58 51°16.117 2°53.489 14.4 345 14.7 100440 94
2005-07-07 06:59 51°16.307 2°53.337 15.4 342 14.7 100440 94
2005-07-07 07:00 51°16.493 2°53.186 15.5 345 14.7 100440 94
2005-07-07 07:01 51°16.677 2°53.021 16.7 351 14.7 100440 94
2005-07-07 07:02 51°16.855 2°52.863 15.5 349 14.6 100450 93
2005-07-07 07:03 51°17.037 2°52.7 15.7 351 14.7 100450 93
2005-07-07 07:04 51°17.22 2°52.543 15.7 347 14.7 100440 92
2005-07-07 07:05 51°17.396 2°52.387 15 352 14.6 100450 91
2005-07-07 07:06 51°17.578 2°52.219 12.6 353 14.8 100450 92
2005-07-07 07:07 51°17.774 2°52.128 13.9 337 14.7 100460 90
2005-07-07 07:08 51°17.975 2°52.123 14.2 336 14.8 100460 90
2005-07-07 07:09 51°18.176 2°52.137 11.8 330 14.8 100450 89
2005-07-07 07:10 51°18.379 2°52.147 13.9 338 14.8 100440 89
2005-07-07 07:11 51°18.583 2°52.159 14.4 333 14.9 100440 89
2005-07-07 07:12 51°18.789 2°52.165 14.9 341 14.9 100450 88
2005-07-07 07:13 51°18.996 2°52.17 13.3 342 15 100450 88
2005-07-07 07:14 51°19.199 2°52.171 13.9 332 15.1 100440 88
2005-07-07 07:15 51°19.402 2°52.173 13.6 341 15 100440 88
2005-07-07 07:16 51°19.607 2°52.171 13.7 337 15.1 100460 87
2005-07-07 07:17 51°19.812 2°52.166 14 336 15.1 100460 88
2005-07-07 07:18 51°20.014 2°52.177 14.5 333 15.1 100450 88
2005-07-07 07:19 51°20.218 2°52.188 14.7 342 15.1 100450 88
2005-07-07 07:20 51°20.423 2°52.158 13.5 338 15.1 100440 89
2005-07-07 07:21 51°20.625 2°52.18 12.8 345 15.1 100440 89
2005-07-07 07:22 51°20.826 2°52.191 14.4 356 15.1 100470 89
2005-07-07 07:23 51°21.005 2°52.021 14.3 11 15.1 100460 88
2005-07-07 07:24 51°21.159 2°51.778 15.4 16 15 100460 87
2005-07-07 07:25 51°21.328 2°51.566 16.1 7 15 100470 86
2005-07-07 07:26 51°21.521 2°51.428 14.5 -999 15 100480 86
2005-07-07 07:27 51°21.726 2°51.385 13.2 348 15 100470 85
2005-07-07 07:28 51°21.927 2°51.435 13.4 349 15.1 100470 86
2005-07-07 07:29 51°22.112 2°51.563 15.3 345 15.1 100470 86
2005-07-07 07:30 51°22.298 2°51.681 14.6 342 15.1 100470 85
2005-07-07 07:31 51°22.488 2°51.802 13.7 348 15.1 100470 84
2005-07-07 07:32 51°22.675 2°51.918 13.3 340 15.1 100490 84
2005-07-07 07:33 51°22.863 2°52.034 14 341 15.2 100500 84
2005-07-07 07:34 51°23.047 2°52.15 14.7 349 15.2 100510 84
2005-07-07 07:35 51°23.236 2°52.261 13.4 349 15.2 100500 85
2005-07-07 07:36 51°23.42 2°52.373 13.5 346 15.1 100500 85
2005-07-07 07:37 51°23.606 2°52.481 12 351 15.2 100510 85
2005-07-07 07:38 51°23.787 2°52.606 13.2 347 15.2 100520 86
2005-07-07 07:39 51°23.969 2°52.735 13.6 348 15.1 100510 86
2005-07-07 07:40 51°24.144 2°52.868 12.7 354 15.1 100510 86
2005-07-07 07:41 51°24.329 2°52.984 13.1 352 15.1 100510 85
2005-07-07 07:42 51°24.518 2°53.085 14.4 352 15.1 100520 85
2005-07-07 07:43 51°24.707 2°53.191 13.6 357 15 100510 85
2005-07-07 07:44 51°24.894 2°53.295 13 355 15.1 100520 85
2005-07-07 07:45 51°25.082 2°53.403 12.4 353 15.1 100520 85
2005-07-07 07:46 51°25.271 2°53.511 14 352 15 100510 85
2005-07-07 07:47 51°25.456 2°53.625 12.9 5 15 100510 85
2005-07-07 07:48 51°25.648 2°53.73 14.3 352 15 100540 85
2005-07-07 07:49 51°25.837 2°53.839 14.8 347 15.1 100510 84
2005-07-07 07:50 51°26.021 2°53.956 12.9 353 15.1 100530 84
2005-07-07 07:51 51°26.205 2°54.081 13.3 345 15.1 100530 85
2005-07-07 07:52 51°26.393 2°54.207 13.4 351 15.1 100520 85
2005-07-07 07:53 51°26.58 2°54.33 14.5 348 15.1 100520 85
2005-07-07 07:54 51°26.765 2°54.448 13.2 344 15.1 100530 84
2005-07-07 07:55 51°26.945 2°54.571 13.2 360 15.2 100540 85
2005-07-07 07:56 51°27.123 2°54.696 12.3 348 15.1 100540 84
2005-07-07 07:57 51°27.308 2°54.82 13.2 349 15.2 100520 85
2005-07-07 07:58 51°27.489 2°54.944 13.1 355 15.2 100550 85
2005-07-07 07:59 51°27.667 2°55.07 13.9 357 15.2 100530 84
2005-07-07 08:00 51°27.848 2°55.195 13.7 355 15.2 100530 84
2005-07-07 08:01 51°28.03 2°55.322 14.3 346 15.1 100530 83
2005-07-07 08:02 51°28.21 2°55.456 12.7 360 15.2 100530 83
2005-07-07 08:03 51°28.392 2°55.588 13.6 354 15.2 100540 83
2005-07-07 08:04 51°28.576 2°55.722 12.5 357 15.2 100550 84
2005-07-07 08:05 51°28.758 2°55.857 12.8 358 15.1 100540 84
2005-07-07 08:06 51°28.943 2°55.99 12.6 2 15.1 100540 84
2005-07-07 08:07 51°29.125 2°56.124 12.1 358 15 100560 85
2005-07-07 08:08 51°29.304 2°56.256 11.8 15 15 100540 85
2005-07-07 08:09 51°29.489 2°56.385 11.4 355 15 100560 84
2005-07-07 08:10 51°29.671 2°56.514 11.6 10 15 100560 84
2005-07-07 08:11 51°29.853 2°56.647 11.1 11 15.1 100550 83
2005-07-07 08:12 51°30.037 2°56.781 12.1 12 15 100520 81
2005-07-07 08:13 51°30.222 2°56.913 12 14 15 100560 79
2005-07-07 08:14 51°30.409 2°57.04 12.2 12 14.9 100530 79
2005-07-07 08:15 51°30.593 2°57.165 12.1 10 14.9 100570 79
2005-07-07 08:16 51°30.777 2°57.291 12.6 6 14.9 100580 79
2005-07-07 08:17 51°30.959 2°57.42 13.3 19 14.9 100570 78
2005-07-07 08:18 51°31.138 2°57.544 12.1 15 14.9 100600 79
2005-07-07 08:19 51°31.319 2°57.673 12.7 6 14.8 100560 79
2005-07-07 08:20 51°31.497 2°57.801 13 10 14.8 100560 81
2005-07-07 08:21 51°31.682 2°57.926 13.1 1 14.7 100580 82
2005-07-07 08:22 51°31.849 2°58.087 12.8 5 14.7 100560 80
2005-07-07 08:23 51°32.018 2°58.252 13 3 14.8 100600 82
2005-07-07 08:24 51°32.186 2°58.423 13.1 10 14.8 100530 82
2005-07-07 08:25 51°32.344 2°58.598 13.2 11 14.9 100570 82
2005-07-07 08:26 51°32.507 2°58.768 13.8 14 14.9 100550 83
2005-07-07 08:27 51°32.641 2°58.907 11.9 3 14.9 100570 84
2005-07-07 08:28 51°32.746 2°59.022 10.7 357 14.8 100590 84
2005-07-07 08:29 51°32.825 2°59.085 9.9 21 14.8 100560 85
2005-07-07 08:30 51°32.87 2°59.131 9.6 -999 14.7 100610 85
2005-07-07 08:31 51°32.885 2°59.177 8.5 350 14.8 100600 85
2005-07-07 08:32 51°32.879 2°59.183 7.3 336 14.7 100600 85
2005-07-07 08:33 51°32.863 2°59.176 8.3 332 14.8 100590 85
2005-07-07 08:34 51°32.844 2°59.162 6.9 347 14.8 100610 84
2005-07-07 08:35 51°32.825 2°59.142 6.3 342 14.8 100600 83
2005-07-07 08:36 51°32.806 2°59.119 7.6 357 14.8 100610 82
2005-07-07 08:37 51°32.785 2°59.092 7.2 354 14.8 100620 82
2005-07-07 08:38 51°32.763 2°59.062 8.7 18 14.9 100620 83
2005-07-07 08:39 51°32.737 2°59.03 7.4 25 14.9 100630 83
2005-07-07 08:40 51°32.71 2°58.996 7.8 32 14.8 100590 82
2005-07-07 08:41 51°32.726 2°58.983 10.7 18 14.7 100620 82
2005-07-07 08:42 51°32.803 2°59.102 13.6 6 14.7 100620 82
2005-07-07 08:43 51°32.913 2°59.223 13.9 13 14.7 100620 82
2005-07-07 08:44 51°33.024 2°59.354 13.2 11 14.8 100600 83
2005-07-07 08:45 51°33.121 2°59.534 14.3 11 14.8 100600 84
2005-07-07 08:46 51°33.191 2°59.659 12.1 1 14.8 100600 84
2005-07-07 08:47 51°33.197 2°59.677 10.1 25 14.8 100610 84
2005-07-07 08:48 51°33.195 2°59.666 9.6 45 14.7 100620 84
2005-07-07 08:49 51°33.224 2°59.67 12.4 20 14.7 100630 84
2005-07-07 08:50 51°33.299 2°59.823 13.5 5 14.7 100590 84
2005-07-07 08:51 51°33.404 3°0.005 12.8 15 14.7 100610 84
2005-07-07 08:52 51°33.43 3°0.065 9.7 338 14.7 100630 83
2005-07-07 08:53 51°33.404 3°0.063 7 295 14.7 100630 82
2005-07-07 08:54 51°33.368 3°0.058 9.6 284 14.9 100650 82
2005-07-07 08:55 51°33.329 3°0.054 7.4 289 14.9 100630 82
2005-07-07 08:56 51°33.295 3°0.049 8.8 304 15 100650 81
2005-07-07 08:57 51°33.265 3°0.04 8.5 330 15 100650 79
2005-07-07 08:58 51°33.259 3°0.057 9.6 12 15 100640 79
2005-07-07 08:59 51°33.347 3°0.117 13.1 17 15.1 100630 80
2005-07-07 09:00 51°33.474 3°0.234 13.7 18 14.9 100640 80
2005-07-07 09:01 51°33.55 3°0.331 8.7 25 14.8 100620 80
2005-07-07 09:02 51°33.552 3°0.315 8.5 59 14.8 100650 81
2005-07-07 09:03 51°33.549 3°0.285 9.9 47 14.7 100670 83
2005-07-07 09:04 51°33.58 3°0.303 11.8 1 14.6 100630 82
2005-07-07 09:05 51°33.649 3°0.462 13.8 6 14.6 100630 82
2005-07-07 09:06 51°33.74 3°0.66 13.7 10 14.6 100640 82
2005-07-07 09:07 51°33.818 3°0.842 11.5 6 14.7 100640 81
2005-07-07 09:08 51°33.818 3°0.923 8.3 345 14.7 100660 81
2005-07-07 09:09 51°33.796 3°0.921 9.6 12 14.7 100670 82
2005-07-07 09:10 51°33.778 3°0.912 9.4 25 14.7 100660 82
2005-07-07 09:11 51°33.76 3°0.891 7.7 47 14.7 100670 82
2005-07-07 09:12 51°33.741 3°0.864 9.2 58 14.7 100690 84
2005-07-07 09:13 51°33.747 3°0.804 8.3 109 14.6 100680 83
2005-07-07 09:14 51°33.765 3°0.609 6.4 104 14.6 100710 83
2005-07-07 09:15 51°33.782 3°0.34 6.7 100 14.7 100690 83
2005-07-07 09:16 51°33.785 3°0.066 6.8 96 14.8 100700 84
2005-07-07 09:17 51°33.791 2°59.888 7.3 44 14.7 100720 83
2005-07-07 09:18 51°33.764 2°59.854 8.9 170 14.8 100720 84
2005-07-07 09:19 51°33.74 2°59.84 7.9 196 14.7 100700 82
2005-07-07 09:20 51°33.712 2°59.818 8.7 213 14.9 100710 82
2005-07-07 09:21 51°33.681 2°59.793 9.3 223 14.7 100700 80
2005-07-07 09:22 51°33.646 2°59.766 8.9 231 14.7 100700 81
2005-07-07 09:23 51°33.608 2°59.741 9.4 243 14.7 100710 81
2005-07-07 09:24 51°33.571 2°59.719 5 256 14.6 100680 81
2005-07-07 09:25 51°33.487 2°59.668 5.4 175 14.8 100720 83
2005-07-07 09:26 51°33.423 2°59.486 7.1 145 14.9 100720 83
2005-07-07 09:27 51°33.356 2°59.281 7.4 154 14.8 100730 81
2005-07-07 09:28 51°33.32 2°59.164 9.3 130 14.8 100710 82
2005-07-07 09:29 51°33.282 2°59.162 10.5 128 14.7 100740 82
2005-07-07 09:30 51°33.248 2°59.153 8.9 225 14.7 100740 82
2005-07-07 09:31 51°33.216 2°59.141 10.7 43 14.8 100740 84
2005-07-07 09:32 51°33.182 2°59.125 10.6 135 14.7 100750 82
2005-07-07 09:33 51°33.162 2°59.069 10.8 107 14.8 100730 82
2005-07-07 09:34 51°33.175 2°58.854 7.1 115 14.8 100750 82
2005-07-07 09:35 51°33.168 2°58.571 8.1 99 14.7 100740 81
2005-07-07 09:36 51°33.228 2°58.463 13.6 27 14.8 100730 82
2005-07-07 09:37 51°33.238 2°58.474 12 342 14.7 100720 80
2005-07-07 09:38 51°33.212 2°58.473 10 228 14.7 100720 78
2005-07-07 09:39 51°33.177 2°58.466 11.6 300 14.8 100720 78
2005-07-07 09:40 51°33.14 2°58.453 9.6 298 14.9 100720 79
2005-07-07 09:41 51°33.11 2°58.503 13.2 349 14.9 100710 77
2005-07-07 09:42 51°33.177 2°58.592 13 25 14.9 100710 77
2005-07-07 09:43 51°33.305 2°58.661 15.6 22 15.1 100710 79
2005-07-07 09:44 51°33.437 2°58.747 12.9 16 15 100710 77
2005-07-07 09:45 51°33.504 2°58.828 11.6 5 15 100740 79
2005-07-07 09:46 51°33.516 2°58.861 9.3 8 15.1 100740 80
2005-07-07 09:47 51°33.511 2°58.859 9.7 17 15 100730 80
2005-07-07 09:48 51°33.497 2°58.845 9.7 20 15.1 100760 81
2005-07-07 09:49 51°33.476 2°58.821 9.9 28 15 100750 81
2005-07-07 09:50 51°33.449 2°58.787 9.5 67 14.8 100750 79
2005-07-07 09:51 51°33.417 2°58.755 8.2 103 14.8 100750 80
2005-07-07 09:52 51°33.387 2°58.727 8.2 115 14.9 100760 83
2005-07-07 09:53 51°33.355 2°58.704 10.4 111 14.9 100760 82
2005-07-07 09:54 51°33.321 2°58.685 11.4 116 14.9 100770 81
2005-07-07 09:55 51°33.286 2°58.67 11 124 14.9 100760 81
2005-07-07 09:56 51°33.25 2°58.655 9.9 126 14.9 100760 80
2005-07-07 09:57 51°33.216 2°58.638 10.6 119 14.9 100770 80
2005-07-07 09:58 51°33.18 2°58.621 10 129 15 100760 80
2005-07-07 09:59 51°33.159 2°58.578 10.6 94 15 100770 80
2005-07-07 10:00 51°33.171 2°58.546 12.1 22 15 100760 81
2005-07-07 10:01 51°33.18 2°58.587 11.3 345 14.9 100750 79
2005-07-07 10:02 51°33.201 2°58.653 12 359 15 100760 80
2005-07-07 10:03 51°33.244 2°58.701 13.5 25 15.1 100770 80
2005-07-07 10:04 51°33.293 2°58.739 13.3 14 15.1 100770 80
2005-07-07 10:05 51°33.341 2°58.782 11.9 17 15 100760 79
2005-07-07 10:06 51°33.391 2°58.826 11.9 17 15.1 100780 81
2005-07-07 10:07 51°33.443 2°58.87 13.7 12 15.2 100780 81
2005-07-07 10:08 51°33.493 2°58.912 11.2 12 15.1 100770 80
2005-07-07 10:09 51°33.543 2°58.959 12.2 10 15 100780 79
2005-07-07 10:10 51°33.593 2°59.008 11.8 12 15 100780 79
2005-07-07 10:11 51°33.643 2°59.054 13.6 9 15.1 100790 81
2005-07-07 10:12 51°33.685 2°59.114 13 12 15 100780 79
2005-07-07 10:13 51°33.708 2°59.152 11.8 16 15 100800 79
2005-07-07 10:14 51°33.719 2°59.173 10.1 17 15 100810 78
2005-07-07 10:15 51°33.731 2°59.18 10.5 26 15 100810 77
2005-07-07 10:16 51°33.747 2°59.184 9.3 20 15 100790 78
2005-07-07 10:17 51°33.763 2°59.196 10.6 19 15.1 100810 79
2005-07-07 10:18 51°33.774 2°59.212 9.9 15 15.1 100820 79
2005-07-07 10:19 51°33.776 2°59.219 10.3 18 15.1 100820 78
2005-07-07 10:20 51°33.774 2°59.218 10.4 11 15.1 100820 79
2005-07-07 10:21 51°33.769 2°59.215 8.8 6 15.1 100820 77
2005-07-07 10:22 51°33.764 2°59.214 8.8 15 15.2 100810 79
2005-07-07 10:23 51°33.763 2°59.218 9 23 15.3 100840 79
2005-07-07 10:24 51°33.764 2°59.22 10.9 24 15.3 100820 80
2005-07-07 10:25 51°33.765 2°59.217 9.7 17 15.1 100840 78
2005-07-07 10:26 51°33.767 2°59.219 9.1 12 15.2 100820 78
2005-07-07 10:27 51°33.768 2°59.227 9.3 12 15.2 100840 79
2005-07-07 10:28 51°33.769 2°59.239 10.4 4 15.2 100830 78
2005-07-07 10:29 51°33.771 2°59.25 10.1 18 15.1 100840 77
2005-07-07 10:30 51°33.773 2°59.251 9.9 23 15.1 100860 77
2005-07-07 10:31 51°33.767 2°59.241 9.3 25 15.1 100840 77
2005-07-07 10:32 51°33.756 2°59.224 11.1 34 15.1 100840 80
2005-07-07 10:33 51°33.767 2°59.206 13.8 29 14.9 100840 78
2005-07-07 10:34 51°33.849 2°59.289 13.4 351 14.9 100820 78
2005-07-07 10:35 51°33.9 2°59.348 11.6 39 15.1 100850 79
2005-07-07 10:36 51°33.95 2°59.32 12.9 2 15 100830 78
2005-07-07 10:37 51°33.962 2°59.478 12.9 324 15.1 100830 79
2005-07-07 10:38 51°33.967 2°59.591 12.1 359 15.1 100830 79
2005-07-07 10:39 51°33.973 2°59.604 11 19 15.2 100850 79
2005-07-07 10:40 51°33.963 2°59.593 11.4 29 15.1 100850 78
2005-07-07 10:41 51°33.967 2°59.588 11.1 354 15.1 100850 78
2005-07-07 10:42 51°34.054 2°59.685 15.8 358 15.2 100850 79
2005-07-07 10:43 51°34.148 2°59.852 16.5 347 15.2 100830 79
2005-07-07 10:44 51°34.209 2°59.949 13.6 6 15.2 100850 77
2005-07-07 10:45 51°34.223 2°59.954 9.7 41 15.2 100870 76
2005-07-07 10:46 51°34.214 2°59.926 8.7 75 15.2 100850 78
2005-07-07 10:47 51°34.207 2°59.874 11.2 94 15.2 100870 79
2005-07-07 10:48 51°34.193 2°59.744 9.4 116 15.1 100880 76
2005-07-07 10:49 51°34.17 2°59.516 10.5 107 15.1 100880 77
2005-07-07 10:50 51°34.162 2°59.295 13.1 82 15.1 100880 76
2005-07-07 10:51 51°34.179 2°59.229 10.5 53 15 100880 75
2005-07-07 10:52 51°34.164 2°59.197 11.3 48 15 100870 76
2005-07-07 10:53 51°34.138 2°59.163 8.9 74 15 100870 75
2005-07-07 10:54 51°34.117 2°59.082 9.6 155 15.1 100890 77
2005-07-07 10:55 51°34.026 2°58.959 3.1 174 15 100920 76
2005-07-07 10:56 51°33.876 2°58.806 2.7 209 15.5 100910 76
2005-07-07 10:57 51°33.731 2°58.679 6.4 159 15.6 100900 74
2005-07-07 10:58 51°33.716 2°58.533 9.3 73 15.5 100900 74
2005-07-07 10:59 51°33.711 2°58.488 9.4 59 15.3 100890 75
2005-07-07 11:00 51°33.689 2°58.458 10.3 67 15.2 100900 77
2005-07-07 11:01 51°33.665 2°58.419 11.9 99 15.1 100890 76
2005-07-07 11:02 51°33.668 2°58.245 11.5 82 15.1 100880 76
2005-07-07 11:03 51°33.687 2°57.997 9.7 83 15.1 100900 76
2005-07-07 11:04 51°33.717 2°57.765 11.9 53 15.1 100900 77
2005-07-07 11:05 51°33.766 2°57.725 8.2 18 15.1 100900 77
2005-07-07 11:06 51°33.762 2°57.713 9.3 342 15.2 100900 77
2005-07-07 11:07 51°33.744 2°57.705 10 321 15.2 100900 77
2005-07-07 11:08 51°33.729 2°57.742 11.9 338 15.3 100910 76
2005-07-07 11:09 51°33.78 2°57.827 15.2 353 15.3 100900 76
2005-07-07 11:10 51°33.878 2°57.975 14.2 352 15.4 100870 75
2005-07-07 11:11 51°33.959 2°58.125 12.4 339 15.4 100880 75
2005-07-07 11:12 51°33.984 2°58.178 9.9 346 15.5 100890 76
2005-07-07 11:13 51°33.979 2°58.181 10.3 360 15.5 100910 74
2005-07-07 11:14 51°33.965 2°58.17 10.4 19 15.5 100920 73
2005-07-07 11:15 51°34.005 2°58.169 13 5 15.4 100900 72
2005-07-07 11:16 51°34.067 2°58.304 14.4 350 15.4 100890 74
2005-07-07 11:17 51°34.144 2°58.467 12.1 345 15.5 100870 73
2005-07-07 11:18 51°34.189 2°58.543 11.3 347 15.6 100900 74
2005-07-07 11:19 51°34.187 2°58.553 9.9 336 15.6 100900 74
2005-07-07 11:20 51°34.176 2°58.557 9.5 331 15.6 100920 75
2005-07-07 11:21 51°34.171 2°58.575 11.5 344 15.6 100910 76
2005-07-07 11:22 51°34.24 2°58.67 14.6 353 15.6 100900 75
2005-07-07 11:23 51°34.315 2°58.794 12.6 338 15.6 100880 73
2005-07-07 11:24 51°34.34 2°58.848 9.6 345 15.6 100920 73
2005-07-07 11:25 51°34.335 2°58.856 11 346 15.7 100930 74
2005-07-07 11:26 51°34.322 2°58.856 8.9 333 15.6 100930 71
2005-07-07 11:27 51°34.371 2°58.896 14.5 5 15.6 100920 72
2005-07-07 11:28 51°34.505 2°58.985 15.2 340 15.5 100890 71
2005-07-07 11:29 51°34.543 2°59.136 12.6 328 15.5 100910 71
2005-07-07 11:30 51°34.563 2°59.219 11.1 331 15.5 100910 72
2005-07-07 11:31 51°34.556 2°59.24 9.8 338 15.5 100940 72
2005-07-07 11:32 51°34.543 2°59.249 10.9 324 15.5 100930 72
2005-07-07 11:33 51°34.537 2°59.273 14.1 350 15.5 100940 71
2005-07-07 11:34 51°34.634 2°59.249 13.5 43 15.5 100920 72
2005-07-07 11:35 51°34.761 2°59.12 14.9 50 15.5 100920 72
2005-07-07 11:36 51°34.88 2°58.935 14.9 45 15.4 100920 73
2005-07-07 11:37 51°34.968 2°58.854 11.3 19 15.3 100940 74
2005-07-07 11:38 51°34.983 2°58.852 9.6 342 15.4 100950 73
2005-07-07 11:39 51°34.977 2°58.855 10.8 231 15.5 100960 73
2005-07-07 11:40 51°34.96 2°58.859 10.9 298 15.5 100970 73
2005-07-07 11:41 51°34.958 2°58.896 12.3 346 15.6 100970 73
2005-07-07 11:42 51°35.002 2°58.868 11.7 83 15.7 100940 74
2005-07-07 11:43 51°34.958 2°58.719 6.8 142 15.5 100960 73
2005-07-07 11:44 51°34.821 2°58.528 6.8 138 15.5 100980 74
2005-07-07 11:45 51°34.687 2°58.346 5.1 167 15.4 100980 73
2005-07-07 11:46 51°34.645 2°58.305 10.9 141 15.4 100960 74
2005-07-07 11:47 51°34.628 2°58.3 12.2 134 15.4 100960 74
2005-07-07 11:48 51°34.609 2°58.295 9.8 124 15.3 100970 73
2005-07-07 11:49 51°34.591 2°58.253 11.1 119 15.3 100970 74
2005-07-07 11:50 51°34.526 2°58.152 7.1 167 15.4 100990 75
2005-07-07 11:51 51°34.406 2°58.052 6.7 153 15.3 100980 75
2005-07-07 11:52 51°34.32 2°57.931 9.8 225 15.3 100990 75
2005-07-07 11:53 51°34.299 2°57.907 10.6 226 15.3 100970 75
2005-07-07 11:54 51°34.284 2°57.909 8.9 135 15.3 100980 76
2005-07-07 11:55 51°34.268 2°57.907 9.7 139 15.4 100980 76
2005-07-07 11:56 51°34.232 2°57.805 8.8 117 15.4 100970 76
2005-07-07 11:57 51°34.167 2°57.617 9.6 119 15.4 100990 76
2005-07-07 11:58 51°34.068 2°57.438 7.5 139 15.3 100990 76
2005-07-07 11:59 51°33.998 2°57.275 9.5 126 15.4 100990 77
2005-07-07 12:00 51°33.982 2°57.247 10.5 125 15.4 100970 76
2005-07-07 12:01 51°33.968 2°57.234 11 105 15.4 100990 75
2005-07-07 12:02 51°33.953 2°57.231 9.8 111 15.4 100980 75
2005-07-07 12:03 51°33.93 2°57.171 10 124 15.4 100980 74
2005-07-07 12:04 51°33.859 2°57.042 8.2 156 15.4 100980 74
2005-07-07 12:05 51°33.729 2°56.989 4.3 185 15.5 100990 75
2005-07-07 12:06 51°33.581 2°56.957 3.6 174 15.9 101000 74
2005-07-07 12:07 51°33.434 2°56.922 4.8 185 16.4 101010 71
2005-07-07 12:08 51°33.285 2°56.884 4 179 16.7 101000 69
2005-07-07 12:09 51°33.137 2°56.848 3.9 199 16.7 101010 66
2005-07-07 12:10 51°32.989 2°56.81 4.3 193 16.4 101000 67
2005-07-07 12:11 51°32.838 2°56.775 4 186 16.1 101000 70
2005-07-07 12:12 51°32.691 2°56.742 3.2 200 16.4 101010 72
2005-07-07 12:13 51°32.542 2°56.709 5 198 16.6 101000 70
2005-07-07 12:14 51°32.392 2°56.678 2.8 194 16.3 101010 70
2005-07-07 12:15 51°32.245 2°56.652 4.7 171 16.4 101010 71
2005-07-07 12:16 51°32.1 2°56.622 4.9 171 16.1 101000 72
2005-07-07 12:17 51°31.952 2°56.596 6.3 160 15.8 101000 73
2005-07-07 12:18 51°31.804 2°56.569 7.2 176 15.7 100990 73
2005-07-07 12:19 51°31.66 2°56.541 4.7 191 15.8 101000 75
2005-07-07 12:20 51°31.512 2°56.518 5.8 176 16.1 101010 72
2005-07-07 12:21 51°31.369 2°56.493 3.3 204 15.8 101010 70
2005-07-07 12:22 51°31.225 2°56.468 3.1 187 16.1 101000 72
2005-07-07 12:23 51°31.086 2°56.435 5.1 201 16.6 101010 73
2005-07-07 12:24 51°30.95 2°56.4 5.1 177 16.7 101010 72
2005-07-07 12:25 51°30.813 2°56.367 6 168 16.3 101000 71
2005-07-07 12:26 51°30.674 2°56.332 6.2 162 16 101000 73
2005-07-07 12:27 51°30.535 2°56.297 5 177 15.8 101010 74
2005-07-07 12:28 51°30.399 2°56.265 6 170 15.7 101010 76
2005-07-07 12:29 51°30.218 2°56.213 4.1 156 15.6 101010 75
2005-07-07 12:30 51°30.01 2°56.155 3.9 169 15.6 101020 74
2005-07-07 12:31 51°29.8 2°56.109 4.1 165 15.6 101010 75
2005-07-07 12:32 51°29.591 2°56.074 5.7 167 15.7 101010 76
2005-07-07 12:33 51°29.379 2°56.037 3.8 152 15.6 101020 74
2005-07-07 12:34 51°29.166 2°56.004 4.4 163 15.6 101010 74
2005-07-07 12:35 51°28.955 2°55.963 3 145 15.7 101010 75
2005-07-07 12:36 51°28.751 2°55.928 3.6 164 15.8 101010 75
2005-07-07 12:37 51°28.546 2°55.901 5.1 147 15.8 101010 75
2005-07-07 12:38 51°28.336 2°55.846 4.4 160 15.8 101010 75
2005-07-07 12:39 51°28.126 2°55.806 3.6 178 15.8 101010 75
2005-07-07 12:40 51°27.923 2°55.778 2.1 165 15.8 101010 74
2005-07-07 12:41 51°27.721 2°55.743 3.6 162 15.8 101020 74
2005-07-07 12:42 51°27.518 2°55.704 3.4 155 15.8 101020 74
2005-07-07 12:43 51°27.314 2°55.67 4.6 155 15.8 101030 74
2005-07-07 12:44 51°27.108 2°55.633 3.8 150 15.8 101020 74
2005-07-07 12:45 51°26.9 2°55.592 4 154 16 101020 76
2005-07-07 12:46 51°26.698 2°55.551 6.1 154 15.9 101010 74
2005-07-07 12:47 51°26.493 2°55.506 4.6 163 15.9 101020 73
2005-07-07 12:48 51°26.291 2°55.478 3.4 189 15.8 101030 73
2005-07-07 12:49 51°26.083 2°55.444 4 162 15.8 101020 73
2005-07-07 12:50 51°25.883 2°55.401 5.6 143 15.8 101020 74
2005-07-07 12:51 51°25.67 2°55.372 4.9 152 15.8 101030 75
2005-07-07 12:52 51°25.468 2°55.326 3.7 155 15.8 101030 73
2005-07-07 12:53 51°25.262 2°55.271 5.7 158 15.8 101020 74
2005-07-07 12:54 51°25.056 2°55.207 3.8 165 15.8 101030 75
2005-07-07 12:55 51°24.852 2°55.143 4.4 169 15.7 101020 76
2005-07-07 12:56 51°24.641 2°55.09 3.8 141 15.7 101030 78
2005-07-07 12:57 51°24.44 2°55.03 4.9 158 15.8 101030 79
2005-07-07 12:58 51°24.233 2°54.981 4 152 15.8 101040 80
2005-07-07 12:59 51°24.034 2°54.924 5.4 161 15.8 101030 80
2005-07-07 13:00 51°23.838 2°54.871 5 159 15.8 101040 80
2005-07-07 13:01 51°23.635 2°54.818 5.3 153 15.6 101030 77
2005-07-07 13:02 51°23.438 2°54.756 5.5 150 15.6 101040 77
2005-07-07 13:03 51°23.24 2°54.702 5.4 158 15.6 101040 77
2005-07-07 13:04 51°23.037 2°54.634 3.6 177 15.7 101040 77
2005-07-07 13:05 51°22.836 2°54.567 3.4 172 15.6 101040 77
2005-07-07 13:06 51°22.633 2°54.509 3.7 175 15.6 101040 77
2005-07-07 13:07 51°22.428 2°54.451 4.3 172 15.7 101040 78
2005-07-07 13:08 51°22.22 2°54.369 6.9 149 15.8 101030 79
2005-07-07 13:09 51°22.024 2°54.258 4.6 135 15.8 101040 79
2005-07-07 13:10 51°21.829 2°54.158 6 143 15.8 101040 77
2005-07-07 13:11 51°21.633 2°54.058 5.6 146 15.7 101050 77
2005-07-07 13:12 51°21.437 2°53.966 4 144 15.8 101050 77
2005-07-07 13:13 51°21.245 2°53.87 4.3 129 15.8 101050 78
2005-07-07 13:14 51°21.057 2°53.768 4.8 151 16 101040 79
2005-07-07 13:15 51°20.859 2°53.663 4.8 135 16 101050 79
2005-07-07 13:16 51°20.663 2°53.563 5.7 151 16 101060 78
2005-07-07 13:17 51°20.474 2°53.47 5.6 152 15.9 101050 77
2005-07-07 13:18 51°20.283 2°53.382 3.9 149 15.9 101050 78
2005-07-07 13:19 51°20.094 2°53.285 7 140 15.9 101050 79
2005-07-07 13:20 51°19.895 2°53.184 5.5 136 15.9 101060 78
2005-07-07 13:21 51°19.703 2°53.093 6.3 139 15.8 101060 79
2005-07-07 13:22 51°19.501 2°53.001 5.3 139 15.8 101060 79
2005-07-07 13:23 51°19.303 2°52.907 7.2 132 15.9 101060 80
2005-07-07 13:24 51°19.108 2°52.812 4.8 128 15.8 101060 79
2005-07-07 13:25 51°18.91 2°52.719 5.7 152 15.8 101060 80
2005-07-07 13:26 51°18.709 2°52.659 4.6 138 15.8 101070 79
2005-07-07 13:27 51°18.509 2°52.597 4.5 146 15.8 101060 79
2005-07-07 13:28 51°18.306 2°52.535 6.3 142 15.8 101070 80
2005-07-07 13:29 51°18.101 2°52.488 5.4 157 15.7 101070 78
2005-07-07 13:30 51°17.902 2°52.443 4.5 148 15.7 101070 78
2005-07-07 13:31 51°17.702 2°52.389 4.6 148 15.8 101070 78
2005-07-07 13:32 51°17.496 2°52.369 3.3 169 15.8 101070 79
2005-07-07 13:33 51°17.29 2°52.371 2.9 171 15.8 101080 79
2005-07-07 13:34 51°17.086 2°52.384 5.1 222 15.8 101080 80
2005-07-07 13:35 51°16.883 2°52.446 4.3 238 15.9 101080 80
2005-07-07 13:36 51°16.688 2°52.587 8 227 16 101080 78
2005-07-07 13:37 51°16.496 2°52.77 6.7 235 16 101080 78
2005-07-07 13:38 51°16.302 2°52.934 5.6 243 16 101080 79
2005-07-07 13:39 51°16.114 2°53.103 5 249 15.9 101080 79
2005-07-07 13:40 51°15.916 2°53.272 4.3 243 15.8 101090 77
2005-07-07 13:41 51°15.726 2°53.439 4.3 256 15.9 101080 78
2005-07-07 13:42 51°15.528 2°53.602 6 244 15.9 101080 77
2005-07-07 13:43 51°15.336 2°53.747 7.4 255 15.9 101080 76
2005-07-07 13:44 51°15.146 2°53.917 5.2 236 15.9 101080 76
2005-07-07 13:45 51°14.967 2°54.105 4.7 254 16 101080 77
2005-07-07 13:46 51°14.807 2°54.322 6.8 260 16 101080 77
2005-07-07 13:47 51°14.649 2°54.549 7.3 268 16 101080 76
2005-07-07 13:48 51°14.499 2°54.795 5.8 257 16 101090 77
2005-07-07 13:49 51°14.365 2°55.06 8.7 270 16 101100 78
2005-07-07 13:50 51°14.264 2°55.264 4.3 274 16 101080 77
2005-07-07 13:51 51°14.163 2°55.392 7.9 208 16.1 101090 77
2005-07-07 13:52 51°14.062 2°55.466 5.2 201 16.1 101090 76
2005-07-07 13:53 51°13.974 2°55.53 8.3 203 16 101090 76
2005-07-07 13:54 51°13.883 2°55.596 8.9 214 16 101100 76
2005-07-07 13:55 51°13.803 2°55.658 8 231 15.9 101090 75
2005-07-07 13:56 51°13.751 2°55.727 7.2 251 16 101090 75
2005-07-07 13:57 51°13.715 2°55.793 8.8 231 16 101100 73
2005-07-07 13:58 51°13.689 2°55.872 4.5 244 16.1 101090 73
2005-07-07 13:59 51°13.683 2°55.901 6.4 261 16.2 101090 74
2005-07-07 14:00 51°13.682 2°55.905 6.1 243 16.4 101090 73